Pittsburgh Allegheny Co., PA

1:22 AM EDT on June 28, 2017 (GMT -0400)
Allegheny County

Weather History for KAGC - April, 2014

Change the Weather History Date:

Tuesday, April 29, 2014

  Actual Average Record
Temperature  
Mean Temperature 54 °F -  
Max Temperature 57 °F 67 °F 90 °F (1990)
Min Temperature 51 °F 42 °F 33 °F (1992)
Degree Days  
Heating Degree Days 11    
Growing Degree Days 4 (Base 50)    
Moisture  
Dew Point 46 °F    
Average Humidity 77    
Maximum Humidity 89    
Minimum Humidity 62    
Precipitation  
Precipitation 0.21 in - - ()
Sea Level Pressure  
Sea Level Pressure 29.90 in    
Wind  
Wind Speed 14 mph (SE)    
Max Wind Speed 25 mph    
Max Gust Speed 34 mph    
Visibility 9 miles    
Events Rain    
Averages and records for this station are not official NWS values.
T = Trace of Precipitation, MM = Missing Value Source: NWS Daily Summary

Daily Weather History Graph

Daily Weather History Graph

Search for Another Location

Airport or City:

Trip Planner

Search our weather history database for the weather conditions in past years. The results will help you decide how hot, cold, wet, or windy it might be!

Date:

Astronomy

Apr. 29, 2014 Rise Set
Actual Time 6:21 AM EDT 8:13 PM EDT
Civil Twilight 5:52 AM EDT 8:42 PM EDT
Nautical Twilight 5:16 AM EDT 9:18 PM EDT
Astronomical Twilight 4:38 AM EDT 9:56 PM EDT
Moon 6:38 AM EDT (4/29) 8:51 PM EDT (4/29)
Length of Visible Light 14h 50m
Length of Day
13h 51m
New Moon, 0% of the Moon is Illuminated
Apr 29
New Moon
May 6
First Quarter
May 14
Full
May 21
Last Quarter
May 28
New

Hourly Weather History & Observations

Time (EDT) Temp. Dew Point Humidity Pressure Visibility Wind Dir Wind Speed Gust Speed Precip Events Conditions
12:53 AM 53.1 °F 48.0 °F 83% 29.86 in 10.0 mi ESE 11.5 mph 19.6 mph N/A   Overcast
1:08 AM 53.6 °F 48.2 °F 82% 29.85 in 10.0 mi SE 10.4 mph - N/A   Overcast
1:53 AM 53.1 °F 48.0 °F 83% 29.86 in 10.0 mi SE 10.4 mph - 0.00 in Rain Light Rain
2:53 AM 52.0 °F 48.0 °F 86% 29.84 in 10.0 mi ESE 11.5 mph - 0.01 in Rain Light Rain
3:53 AM 53.1 °F 48.0 °F 83% 29.87 in 10.0 mi ESE 6.9 mph - 0.00 in Rain Light Rain
4:53 AM 52.0 °F 48.0 °F 86% 29.84 in 10.0 mi ESE 12.7 mph - 0.02 in Rain Light Rain
5:53 AM 52.0 °F 46.9 °F 83% 29.83 in 10.0 mi ESE 12.7 mph 23.0 mph 0.00 in Rain Light Rain
6:53 AM 51.1 °F 48.0 °F 89% 29.84 in 7.0 mi SE 18.4 mph 23.0 mph 0.08 in Rain Light Rain
7:53 AM 51.1 °F 46.9 °F 86% 29.84 in 7.0 mi ESE 12.7 mph 23.0 mph 0.02 in Rain Light Rain
8:53 AM 51.8 °F 46.4 °F 82% 29.81 in 10.0 mi ESE 16.1 mph 25.3 mph N/A   Overcast
9:53 AM 53.1 °F 45.0 °F 74% 29.83 in 10.0 mi SE 13.8 mph 27.6 mph 0.01 in Rain Light Rain
10:53 AM 53.1 °F 46.9 °F 80% 29.84 in 6.0 mi SE 25.3 mph 33.4 mph 0.04 in Rain Light Rain
11:53 AM 53.1 °F 46.0 °F 77% 29.83 in 10.0 mi ESE 17.3 mph 27.6 mph 0.01 in   Overcast
12:53 PM 55.9 °F 46.0 °F 69% 29.86 in 10.0 mi SSE 21.9 mph 29.9 mph 0.00 in   Overcast
1:53 PM 55.0 °F 46.9 °F 74% 29.90 in 4.0 mi SE 21.9 mph 34.5 mph 0.02 in Rain Light Rain
2:53 PM 55.0 °F 46.9 °F 74% 29.92 in 10.0 mi SE 17.3 mph 29.9 mph 0.00 in   Overcast
3:53 PM 57.0 °F 46.0 °F 67% 29.92 in 10.0 mi SE 19.6 mph 28.8 mph N/A   Overcast
4:53 PM 55.9 °F 45.0 °F 67% 29.95 in 10.0 mi SE 15.0 mph 32.2 mph N/A   Overcast
5:53 PM 57.9 °F 45.0 °F 62% 29.97 in 10.0 mi SE 13.8 mph 24.2 mph N/A   Mostly Cloudy
6:53 PM 53.1 °F 44.1 °F 71% 29.98 in 10.0 mi ESE 13.8 mph 19.6 mph N/A   Overcast
7:53 PM 52.0 °F 44.1 °F 74% 30.00 in 10.0 mi SE 13.8 mph 23.0 mph N/A   Mostly Cloudy
8:53 PM 51.1 °F 43.0 °F 74% 29.99 in 10.0 mi ESE 17.3 mph 24.2 mph N/A   Clear
9:53 PM 51.1 °F 43.0 °F 74% 29.99 in 10.0 mi SE 15.0 mph 21.9 mph N/A   Clear
10:53 PM 51.1 °F 43.0 °F 74% 30.00 in 10.0 mi SE 13.8 mph 23.0 mph N/A   Partly Cloudy
11:53 PM 52.0 °F 43.0 °F 71% 30.00 in 10.0 mi ESE 12.7 mph - N/A   Clear